Location: Newport
(44.6370°N, 124.0520°W)
Time: 07:48:09
(UTC-07:00)

Envisat - Pass Details

Date: 11 October 2017
Orbit: 764 x 766 km, 98.2° (Epoch: 19 October)

Event Time Altitude Azimuth Distance (km) Brightness Sun altitude
Exits shadow 20:51:09 69° 114° (ESE) 819 2.8 -24.4°
Maximum altitude 20:51:33 74° 74° (ENE) 800 2.8 -24.4°
Drops below altitude 10° 20:56:38 10° 350° (N) 2,312 5.8 -25.3°
Sets 20:58:57 0° 349° (N) 3,242 6.6 -25.7°
